Simultaneous Nadir Overpasses (SNOs) Predictions

Prediction of SNOs between METOP-B and TERRA Satellite Orbit:

Table of predicted SNOs for the next 14.0 days since TLE Epoch: 1/9/2018
Index Date (METOP-B) Time (METOP-B) Lat,Lon (METOP-B) SZA (METOP-B ) Date (TERRA) Time (TERRA) Lat,Lon (TERRA) SZA (TERRA ) Distance(km) Time Diff (sec)
1 01/09/2018 13:46:44 81.31, 20.72 105.82 01/09/2018 13:47:20 81.31, 20.63 105.82 1.84 36
2 01/09/2018 14:37:24 -81.32,-171.47 74.13 01/09/2018 14:36:46 -81.32,-171.50 74.15 0.44 38
3 01/12/2018 09:21:06 81.32, 87.27 105.38 01/12/2018 09:21:35 81.31, 87.13 105.37 2.46 29
4 01/12/2018 10:11:46 -81.32,-104.89 74.57 01/12/2018 10:11:01 -81.32,-104.96 74.60 1.27 45
5 01/15/2018 04:55:28 81.31, 153.42 104.84 01/15/2018 04:55:49 81.31, 153.59 104.86 2.79 21
6 01/15/2018 05:46:07 -81.32, -38.32 75.07 01/15/2018 05:45:15 -81.33, -38.49 75.11 2.77 52
7 01/18/2018 00:29:50 81.31,-140.04 104.29 01/18/2018 00:30:04 81.31,-140.01 104.29 0.89 14
8 01/18/2018 01:20:30 -81.32, 27.84 75.66 01/18/2018 01:19:30 -81.33, 27.94 75.68 1.71 60
9 01/20/2018 20:04:11 81.32, -73.13 103.73 01/20/2018 20:04:18 81.32, -73.28 103.72 2.57 7




NCC Satellite Simultaneous Nadir Overpasses (SNOs) Prediction Service
